Regional Weather Roundup
Issued by NWS

Home | Current Version | Previous Version | Text Only | Print | Product List | Glossary Off
Versions: 1 2 3 4 5 6 7 8 9 10 11 12 13 14 15 16 17 18 19 20 21 22 23 24 25 26 27 28 29 30 31 32 33 34 35 36 37 38 39 40 41 42 43 44 45 46 47 48 49 50

000
ASUS43 KIND 202209
RWRIN

WEATHER ROUNDUP FOR INDIANA
NATIONAL WEATHER SERVICE INDIANAPOLIS IN
600 PM EDT MON OCT 20 2014

NOTE: "FAIR" INDICATES FEW OR NO CLOUDS BELOW 12,000 FEET WITH NO
SIGNIFICANT WEATHER AND/OR OBSTRUCTIONS TO VISIBILITY.

* - STATION DOES NOT REPORT WEATHER SUCH AS PRECIPITATION OR FOG.

+ - STATION NOT QUALITY CONTROLLED BY THE NATIONAL WEATHER SERVICE.
    USE DATA WITH CAUTION...ESPECIALLY DEWPOINT AND RELATIVE
    HUMIDITY OBSERVATIONS.

INZ001>003-010>013-019-020-202300-
NORTHWEST INDIANA

CITY           SKY/WX    TMP DP  RH WIND       PRES   REMARKS
GARY /AIRPORT/ MOCLDY    57  50  77 N10       29.90R
KNOX *+        CLOUDY    57  47  68 N13G18    29.88R
LA PORTE +     CLOUDY    56  49  78 N13       29.89R
MICHIGAN CITY+ CLOUDY    54  46  76 N8        29.90R
MONTICELLO +   CLOUDY    64  48  56 NW9       29.85R
RENSSELAER +   PTSUNNY   63  46  55 NW7       29.87R
VALPARAISO     CLOUDY    55  48  77 N10       29.89R

$$

LMZ046-743>745-202300-
SOUTHERN LAKE MICHIGAN

STATION/POSITION TIME  TEMP WIND        PRES
                       AIR  DIR/SP/G
                 (UTC) (F)  (DEG/KT/KT) (MB)
MICHIGAN CITY    2200   53  350/ 18/ 20   N/A

$$

INZ004-005-014>016-021>024-202300-
NORTH CENTRAL INDIANA

CITY           SKY/WX    TMP DP  RH WIND       PRES   REMARKS
ELKHART        CLOUDY    55  46  71 NW8       29.87R
GOSHEN         CLOUDY    57  48  72 NW13      29.86R
LOGANSPORT +   CLOUDY    63  45  51 NW6       29.86R
PERU/GRISSOM   MOCLDY    63  51  63 NW10      29.84R
ROCHESTER +    MOCLDY    61  48  63 NW13      29.87R
SOUTH BEND     CLOUDY    55  48  77 NW12      29.89R
WARSAW +       MOCLDY    59  46  63 NW14      29.86R

$$

INZ006>009-017-018-025>027-202300-
NORTHEAST INDIANA

CITY           SKY/WX    TMP DP  RH WIND       PRES   REMARKS
ANGOLA *+      MOCLDY    55  46  71 NW3       29.84R
AUBURN +       MOCLDY    57  50  77 CALM      29.84R
FORT WAYNE     MOCLDY    61  49  64 W6        29.83S
HUNTINGTON +   MOCLDY    61  49  64 NW5       29.83R

$$

INZ028-029-035-036-043>045-051>053-202300-
WEST CENTRAL INDIANA

CITY           SKY/WX    TMP DP  RH WIND       PRES   REMARKS
GREENCASTLE +  MOSUNNY   64  45  48 NW7       29.87R
LAFAYETTE      PTSUNNY   64  48  56 NW9       29.86R
TERRE HAUTE    SUNNY     69  44  40 NW14      29.88R

$$

INZ030>032-037>040-046>048-054>057-064-065-202300-
CENTRAL INDIANA

CITY           SKY/WX    TMP DP  RH WIND       PRES   REMARKS
CP ATTERBURY + PTCLDY    66  46  48 W8        29.86S
FRANKFORT +    PTCLDY    65  48  53 W13       29.87R
GREENWOOD *+   PTCLDY    68  39  34 W7G16     29.86R
INDIANAPOLIS   PTCLDY    66  44  45 W13       29.85R
-EAGLE CREEK   PTCLDY    66  45  46 W13       29.84R
KOKOMO *+      MOCLDY    64  46  52 NW13      29.84R
MARION +       PTCLDY    63  47  55 NW8       29.84R
MT COMFORT *+  PTCLDY    66  36  32 W10       29.85R
SHELBYVILLE    MOCLDY    68  48  48 W12       29.84S
ZIONSVILLE +   MOCLDY    65  45  47 NW9G16    29.86R

$$

INZ033-034-041-042-049-050-058-059-202300-
EAST CENTRAL INDIANA

CITY           SKY/WX    TMP DP  RH WIND       PRES   REMARKS
MUNCIE         MOCLDY    63  48  58 NW7       29.83R

$$

INZ060-061-067>069-081>083-085>088-202300-
SOUTHWEST INDIANA

CITY           SKY/WX    TMP DP  RH WIND       PRES   REMARKS
EVANSVILLE     PTSUNNY   71  53  52 W9        29.89S
HUNTINGBURG *+ MOSUNNY   68  54  60 W10       29.89S
WASHINGTON +   MOSUNNY   70  48  45 W12       29.87S

$$

INZ062-063-066-070>080-084-089>092-202300-
SOUTH CENTRAL AND SOUTHEAST INDIANA

CITY           SKY/WX    TMP DP  RH WIND       PRES   REMARKS
BLOOMINGTON    MOSUNNY   68  44  42 W9        29.86S

$$



USA.gov is the U.S. government's official web portal to all federal, state and local government web resources and services.